Voltar ao catálogo

MOLNIYA 3-40

AtivoComunicaçõesHEO
NORAD 21196·PAYLOAD·🇷🇺 Russia

Lançado Mar 22, 1991 de Plesetsk Cosmodrome

Loading…

Próximas Passagens (próximas 24 horas)

TLE

AtualizadoSource: Space-Track

Época: Sep 13, 2026, 00:40 UTC

1 21196U 91022A   26256.02846174  .00001150  00000-0  00000-0 0  9993
2 21196  64.7118 181.2980 6454028 252.3903  31.3938  2.03001583261121

Acompanhe MOLNIYA 3-40 em tempo real com AllMySat

Download on the App Store